Tracking 29967 objects as of 5-Dec-2024
HD Live streaming from Space Station
objects crossing your sky now

CZ-3C DEB

Track CZ-3C DEB now!


NORAD ID: 40202
Int'l Code: 2012-008M
Perigee: 477.0 km
Apogee: 34,461.0 km
Inclination: 20.3 °
Period: 610.5 minutes
Semi major axis: 23839 km
RCS: Unknown
Launch date: February 24, 2012
Source: People's Republic of China (PRC)
Launch site: Xichang Space Center, China (XSC)

Note: This is SATELLITE DEBRIS
Your satellite tracking list
Your tracking list is empty




NASA's NSSDC Master Catalog

Two Line Element Set (TLE):
1 40202U 12008M   24336.77316314  .00001352  00000-0  67546-2 0  9990
2 40202  20.3021  50.3586 7127521 164.7841 240.0837  2.35854342 99920
Source of the keplerian elements: AFSPC